When you browse on this site, cookies collect data to enhance your experience and personalize the content and advertising you see.
Visit our Privacy Policy to learn more. By continuing to use the site, you agree to this use of cookies and data.
  • In Deutschland
  • Länderverzeichnis
  • Für 7 Tage
  • Wassertemperatur
  • Satellitenkarten
  • Wetterkarte
  • Widgets
  • user-avatar
    Anmelden

    Stündliche Wetter Victoria

    Heute, 17 Juni, Montag

    Zeit Temperatur Niederschläge Wind Luftdruck Luftfeuchtigkeit
    00:00 +8°C° 0 mm 1 m/S 755 mmHg 91%
    01:00 +7°C° 0 mm 1 m/S 755 mmHg 92%
    02:00 +7°C° 0 mm 1 m/S 755 mmHg 92%
    03:00 +7°C° 0 mm 1 m/S 755 mmHg 92%
    04:00 +7°C° 0 mm 1 m/S 755 mmHg 91%
    05:00 +7°C° 0 mm 1 m/S 755 mmHg 91%
    06:00 +6°C° 0 mm 1 m/S 755 mmHg 91%
    07:00 +6°C° 0 mm 1 m/S 756 mmHg 91%
    08:00 +8°C° 0 mm 1 m/S 755 mmHg 87%
    09:00 +9°C° 0 mm 1 m/S 755 mmHg 83%
    10:00 +10°C° 0 mm 0 m/S 755 mmHg 79%
    11:00 +12°C° 0 mm 1 m/S 755 mmHg 75%
    12:00 +13°C° 0 mm 1 m/S 754 mmHg 71%
    13:00 +14°C° 0 mm 1 m/S 754 mmHg 67%
    14:00 +14°C° 0 mm 1 m/S 754 mmHg 69%
    15:00 +14°C° 0 mm 1 m/S 753 mmHg 71%
    16:00 +14°C° 0 mm 1 m/S 753 mmHg 73%
    17:00 +12°C° 0 mm 1 m/S 753 mmHg 77%
    18:00 +11°C° 0 mm 1 m/S 753 mmHg 81%
    19:00 +9°C° 0 mm 1 m/S 754 mmHg 85%
    20:00 +8°C° 0 mm 2 m/S 754 mmHg 86%
    21:00 +8°C° 0 mm 2 m/S 754 mmHg 87%
    22:00 +7°C° 0 mm 2 m/S 754 mmHg 89%
    23:00 +7°C° 0 mm 3 m/S 753 mmHg 90%

    Morgen, 18 Juni, Dienstag

    Zeit Temperatur Niederschläge Wind Luftdruck Luftfeuchtigkeit
    00:00 +7°C° 0 mm 3 m/S 753 mmHg 90%
    01:00 +7°C° 0 mm 3 m/S 753 mmHg 91%
    02:00 +7°C° 0 mm 3 m/S 752 mmHg 89%
    03:00 +7°C° 0 mm 3 m/S 752 mmHg 88%
    04:00 +7°C° 0 mm 3 m/S 752 mmHg 86%
    05:00 +7°C° 0 mm 3 m/S 752 mmHg 86%
    06:00 +7°C° 0 mm 3 m/S 752 mmHg 86%
    07:00 +7°C° 0 mm 3 m/S 752 mmHg 86%
    08:00 +8°C° 0.1 mm 3 m/S 752 mmHg 85%
    09:00 +8°C° 0.1 mm 2 m/S 753 mmHg 84%
    10:00 +9°C° 0.1 mm 2 m/S 753 mmHg 83%
    11:00 +10°C° 0.1 mm 2 m/S 753 mmHg 80%
    12:00 +10°C° 0.1 mm 2 m/S 752 mmHg 78%
    13:00 +12°C° 0.1 mm 2 m/S 752 mmHg 76%
    14:00 +12°C° 0.2 mm 2 m/S 752 mmHg 76%
    15:00 +12°C° 0.2 mm 2 m/S 752 mmHg 77%
    16:00 +12°C° 0.2 mm 2 m/S 752 mmHg 77%
    17:00 +9°C° 0 mm 2 m/S 753 mmHg 81%
    18:00 +8°C° 0 mm 3 m/S 754 mmHg 84%
    19:00 +5°C° 0 mm 3 m/S 754 mmHg 87%
    20:00 +4°C° 0 mm 3 m/S 755 mmHg 89%
    21:00 +4°C° 0 mm 3 m/S 755 mmHg 90%
    22:00 +3°C° 0 mm 3 m/S 755 mmHg 91%
    23:00 +3°C° 0 mm 3 m/S 755 mmHg 91%

    übermorgen, 19 Juni, Mittwoch

    Zeit Temperatur Niederschläge Wind Luftdruck Luftfeuchtigkeit
    00:00 +3°C° 0 mm 3 m/S 756 mmHg 91%
    01:00 +2°C° 0 mm 3 m/S 756 mmHg 92%
    02:00 +2°C° 0 mm 3 m/S 756 mmHg 92%
    03:00 +3°C° 0 mm 2 m/S 756 mmHg 92%
    04:00 +2°C° 0 mm 2 m/S 756 mmHg 93%
    05:00 +2°C° 0 mm 2 m/S 756 mmHg 93%
    06:00 +2°C° 0 mm 2 m/S 757 mmHg 93%
    07:00 +2°C° 0 mm 2 m/S 757 mmHg 93%
    08:00 +4°C° 0 mm 2 m/S 757 mmHg 89%
    09:00 +5°C° 0 mm 2 m/S 757 mmHg 85%
    10:00 +7°C° 0 mm 2 m/S 757 mmHg 80%
    11:00 +8°C° 0 mm 2 m/S 757 mmHg 74%
    12:00 +10°C° 0 mm 3 m/S 757 mmHg 67%
    13:00 +11°C° 0 mm 3 m/S 757 mmHg 61%
    14:00 +11°C° 0 mm 3 m/S 756 mmHg 63%
    15:00 +10°C° 0 mm 2 m/S 756 mmHg 65%
    16:00 +10°C° 0 mm 2 m/S 756 mmHg 67%
    17:00 +8°C° 0 mm 2 m/S 756 mmHg 71%
    18:00 +7°C° 0 mm 2 m/S 757 mmHg 75%
    19:00 +5°C° 0 mm 2 m/S 757 mmHg 79%
    20:00 +4°C° 0 mm 2 m/S 757 mmHg 83%
    21:00 +4°C° 0 mm 2 m/S 757 mmHg 87%
    22:00 +3°C° 0 mm 2 m/S 757 mmHg 90%
    23:00 +3°C° 0 mm 2 m/S 757 mmHg 91%

    20 Juni, Donnerstag

    Zeit Temperatur Niederschläge Wind Luftdruck Luftfeuchtigkeit
    00:00 +4°C° 0 mm 1 m/S 757 mmHg 91%
    01:00 +3°C° 0 mm 1 m/S 757 mmHg 92%
    02:00 +3°C° 0 mm 1 m/S 757 mmHg 91%
    03:00 +3°C° 0 mm 1 m/S 757 mmHg 91%
    04:00 +2°C° 0 mm 1 m/S 757 mmHg 91%
    05:00 +2°C° 0 mm 1 m/S 757 mmHg 91%
    06:00 +2°C° 0 mm 1 m/S 757 mmHg 90%
    07:00 +2°C° 0 mm 1 m/S 757 mmHg 90%
    08:00 +3°C° 0 mm 1 m/S 757 mmHg 84%
    09:00 +5°C° 0 mm 1 m/S 757 mmHg 79%
    10:00 +6°C° 0 mm 1 m/S 757 mmHg 74%
    11:00 +8°C° 0 mm 1 m/S 757 mmHg 70%
    12:00 +8°C° 0 mm 2 m/S 757 mmHg 66%
    13:00 +9°C° 0 mm 3 m/S 757 mmHg 63%
    14:00 +9°C° 0.1 mm 3 m/S 756 mmHg 65%
    15:00 +9°C° 0.1 mm 3 m/S 756 mmHg 67%
    16:00 +9°C° 0.1 mm 3 m/S 756 mmHg 69%
    17:00 +7°C° 0 mm 3 m/S 756 mmHg 76%
    18:00 +5°C° 0 mm 3 m/S 757 mmHg 82%
    19:00 +3°C° 0 mm 3 m/S 757 mmHg 88%
    20:00 +2°C° 0 mm 3 m/S 758 mmHg 90%
    21:00 +2°C° 0 mm 3 m/S 758 mmHg 91%
    22:00 +2°C° 0 mm 3 m/S 758 mmHg 93%
    23:00 +2°C° 0 mm 3 m/S 758 mmHg 93%

    21 Juni, Freitag

    Zeit Temperatur Niederschläge Wind Luftdruck Luftfeuchtigkeit
    00:00 +1°C° 0 mm 3 m/S 758 mmHg 93%
    01:00 +1°C° 0 mm 3 m/S 758 mmHg 93%
    02:00 +1°C° 0 mm 3 m/S 758 mmHg 93%
    03:00 +1°C° 0 mm 3 m/S 758 mmHg 93%
    04:00 +1°C° 0 mm 3 m/S 758 mmHg 94%
    05:00 +1°C° 0 mm 3 m/S 758 mmHg 93%
    06:00 +1°C° 0 mm 3 m/S 759 mmHg 93%
    07:00 +2°C° 0 mm 3 m/S 759 mmHg 93%
    08:00 +4°C° 0 mm 3 m/S 759 mmHg 87%
    09:00 +6°C° 0 mm 4 m/S 759 mmHg 81%
    10:00 +8°C° 0 mm 4 m/S 760 mmHg 75%
    11:00 +8°C° 0 mm 4 m/S 759 mmHg 70%
    12:00 +9°C° 0 mm 5 m/S 759 mmHg 66%
    13:00 +10°C° 0 mm 5 m/S 759 mmHg 61%
    14:00 +10°C° 0 mm 5 m/S 759 mmHg 62%
    15:00 +11°C° 0 mm 4 m/S 759 mmHg 64%
    16:00 +11°C° 0 mm 4 m/S 759 mmHg 66%
    17:00 +8°C° 0 mm 4 m/S 759 mmHg 72%
    18:00 +6°C° 0 mm 4 m/S 760 mmHg 78%
    19:00 +5°C° 0 mm 4 m/S 760 mmHg 85%
    20:00 +4°C° 0 mm 4 m/S 760 mmHg 86%
    21:00 +4°C° 0 mm 3 m/S 761 mmHg 88%
    22:00 +3°C° 0 mm 3 m/S 761 mmHg 89%
    23:00 +3°C° 0 mm 3 m/S 761 mmHg 89%

    22 Juni, Samstag

    Zeit Temperatur Niederschläge Wind Luftdruck Luftfeuchtigkeit
    00:00 +3°C° 0 mm 3 m/S 761 mmHg 89%
    01:00 +2°C° 0 mm 3 m/S 761 mmHg 89%
    02:00 +2°C° 0 mm 3 m/S 761 mmHg 88%
    03:00 +3°C° 0 mm 2 m/S 761 mmHg 88%
    04:00 +3°C° 0 mm 2 m/S 761 mmHg 87%
    05:00 +3°C° 0 mm 2 m/S 761 mmHg 88%
    06:00 +3°C° 0 mm 2 m/S 761 mmHg 89%
    07:00 +3°C° 0 mm 2 m/S 762 mmHg 90%
    08:00 +4°C° 0 mm 2 m/S 762 mmHg 84%
    09:00 +6°C° 0 mm 2 m/S 762 mmHg 78%
    10:00 +8°C° 0 mm 2 m/S 762 mmHg 72%
    11:00 +9°C° 0 mm 2 m/S 762 mmHg 67%
    12:00 +10°C° 0 mm 2 m/S 761 mmHg 62%
    13:00 +13°C° 0 mm 2 m/S 761 mmHg 56%
    14:00 +12°C° 0 mm 2 m/S 761 mmHg 59%
    15:00 +12°C° 0 mm 1 m/S 761 mmHg 61%
    16:00 +12°C° 0 mm 1 m/S 760 mmHg 64%
    17:00 +10°C° 0 mm 1 m/S 761 mmHg 69%
    18:00 +8°C° 0 mm 1 m/S 761 mmHg 73%
    19:00 +6°C° 0 mm 2 m/S 761 mmHg 78%
    20:00 +5°C° 0 mm 2 m/S 761 mmHg 80%
    21:00 +5°C° 0 mm 2 m/S 762 mmHg 83%
    22:00 +4°C° 0 mm 2 m/S 762 mmHg 86%
    23:00 +4°C° 0 mm 2 m/S 762 mmHg 86%
    Mehr zeigen